Find Starlink 2329

NORAD ID: 47873 Int'l Des: 2021-021 Owner: SPXS Country: US Constellation: starlink operational
LEOCIRCULAR

Live Position

Loading 3D Globe...

About Starlink 2329

Description loading...

Upcoming Passes

Passes for default location (London). Set your location on the main map for personalized predictions.

Altitude History

Loading altitude history...

Two-Line Element Set

1 47873U 21021P 26106.33603147 .00000138 00000-0 16224-4 0 9998
2 47873 53.1605 80.5064 0001397 90.1523 269.9639 15.31699550282183
Epoch: Apr 16, 2026 • Age: 29 hours

Current Status

Altitude 475.7 km
Velocity 7.63 km/s
Sub-Earth Point 50.17°N, 155.25°E
Launch Date Mar 14, 2021
Age 5 years
Type internet

Technical Details

Classification Payload
Mass 260.00 kg
Dry Mass 248.00 kg
Total Mass 260.00 kg
Length 0.20 m
Diameter 2.80 m
Span 9.00 m
Shape Box + pan
Manufacturer SPXS
Bus Type Starlink
Phase Status In Orbit
Owner/State SPXS/US

Most Searched